Weather History for Rolla, MO

Change the Weather History Date:

Monday, March 11, 2013

  Actual Average Record
Temperature  
Mean Temperature 29 °F 44 °F  
Max Temperature 34 °F 54 °F 82 °F (1972)
Min Temperature 24 °F 33 °F 13 °F (1969)
Degree Days  
Heating Degree Days 36 21  
Month to date heating degree days 316 256  
Since 1 July heating degree days 3902 4046  
Cooling Degree Days 0 0  
Month to date cooling degree days 0 0  
Year to date cooling degree days 0 0  
Moisture  
Dew Point 27 °F    
Average Humidity 85    
Maximum Humidity 100    
Minimum Humidity 69    
Precipitation  
Precipitation T in 0.09 in 1.45 in (1977)
Month to date precipitation 1.53 0.98  
Year to date precipitation 6.24 5.08  
Sea Level Pressure  
Sea Level Pressure 29.85 in    
Wind  
Wind Speed 11 mph (West)    
Max Wind Speed 21 mph    
Max Gust Speed 26 mph    
Visibility 8 miles    
Events Rain    
T = Trace of Precipitation, MM = Missing Value Source: NWS Daily Summary

Daily Weather History Graph

Daily Weather History Graph

Search for Another Location

Airport:

Trip Planner

Search our weather history database for the weather conditions in past years. The results will help you decide how hot, cold, wet, or windy it might be!

Date:

Astronomy

Mar. 11, 2013 Rise Set
Actual Time 7:23 AM CDT 7:10 PM CDT
Civil Twilight 6:57 AM CDT 7:36 PM CDT
Nautical Twilight 6:27 AM CDT 8:07 PM CDT
Astronomical Twilight 5:56 AM CDT 8:38 PM CDT
Moon 6:58 AM CDT (3/11) 7:22 PM CDT (3/11)
Length of Visible Light 12h 39m
Length of Day
11h 46m
Waning Crescent, 0% of the Moon is Illuminated
Mar 11
Waning Crescent
Mar 11
New
Mar 19
First Quarter
Mar 27
Full
Apr 2
Last Quarter

Hourly Weather History & Observations

Time (CDT) Temp. Windchill Dew Point Humidity Pressure Visibility Wind Dir Wind Speed Gust Speed Precip Events Conditions
12:53 AM 34.0 °F 25.0 °F 33.1 °F 96% 29.79 in 6.0 mi West 12.7 mph - N/A   Overcast
1:24 AM 33.8 °F 23.9 °F 32.0 °F 93% 29.78 in 6.0 mi West 15.0 mph - N/A   Overcast
1:53 AM 33.1 °F 23.4 °F 30.9 °F 92% 29.80 in 7.0 mi West 13.8 mph - N/A   Overcast
2:27 AM 32.0 °F 23.0 °F 30.2 °F 93% 29.77 in 6.0 mi West 11.5 mph - N/A   Overcast
2:53 AM 32.0 °F 21.2 °F 28.9 °F 88% 29.78 in 9.0 mi West 16.1 mph 23.0 mph N/A   Overcast
3:53 AM 30.9 °F 20.2 °F 28.9 °F 92% 29.77 in 10.0 mi West 15.0 mph - N/A   Overcast
4:53 AM 30.9 °F 21.2 °F 28.0 °F 89% 29.78 in 7.0 mi West 12.7 mph - N/A   Overcast
5:36 AM 30.2 °F 21.9 °F 28.4 °F 93% 29.78 in 4.0 mi WSW 9.2 mph - 0.00 in Rain Light Freezing Rain
5:53 AM 30.0 °F 18.3 °F 28.0 °F 92% 29.79 in 4.0 mi WSW 17.3 mph 23.0 mph 0.00 in Rain Light Freezing Rain
6:48 AM 30.2 °F 20.2 °F 26.6 °F 86% 29.77 in 8.0 mi West 12.7 mph - 0.00 in   Overcast
6:53 AM 30.0 °F 21.1 °F 28.0 °F 92% 29.79 in 7.0 mi West 10.4 mph - 0.00 in   Overcast
7:33 AM 28.4 °F 18.5 °F 26.6 °F 93% 29.79 in 6.0 mi West 11.5 mph - 0.00 in Rain Light Freezing Rain
7:53 AM 28.9 °F 17.7 °F 26.1 °F 89% 29.81 in 9.0 mi West 15.0 mph - 0.00 in Rain Light Freezing Rain
8:01 AM 28.4 °F 17.5 °F 26.6 °F 93% 29.79 in 9.0 mi West 13.8 mph - 0.00 in   Overcast
8:53 AM 28.0 °F 17.5 °F 25.0 °F 88% 29.83 in 8.0 mi West 12.7 mph - 0.00 in   Overcast
9:25 AM 28.4 °F 16.2 °F 26.6 °F 93% 29.82 in 5.0 mi West 17.3 mph - N/A   Overcast
9:53 AM 28.0 °F 17.0 °F 26.1 °F 92% 29.85 in 4.0 mi West 13.8 mph - N/A   Overcast
10:10 AM 28.4 °F 17.5 °F 26.6 °F 93% 29.83 in 6.0 mi West 13.8 mph - N/A   Overcast
10:53 AM 28.0 °F 16.5 °F 25.0 °F 88% 29.86 in 6.0 mi West 15.0 mph 24.2 mph N/A   Overcast
11:53 AM 28.9 °F 19.2 °F 26.1 °F 89% 29.87 in 7.0 mi West 11.5 mph - N/A   Overcast
12:23 PM 28.4 °F 17.0 °F 24.8 °F 86% 29.85 in 10.0 mi West 15.0 mph - N/A   Overcast
12:53 PM 28.9 °F 17.7 °F 26.1 °F 89% 29.87 in 10.0 mi West 15.0 mph 20.7 mph N/A   Overcast
1:53 PM 30.9 °F 20.2 °F 26.1 °F 82% 29.86 in 10.0 mi West 15.0 mph 24.2 mph N/A   Overcast
2:06 PM 30.2 °F 19.3 °F 26.6 °F 86% 29.84 in 10.0 mi West 15.0 mph 21.9 mph N/A   Overcast
2:53 PM 32.0 °F 22.5 °F 27.0 °F 82% 29.87 in 10.0 mi West 12.7 mph 20.7 mph N/A   Overcast
3:53 PM 33.1 °F 24.9 °F 27.0 °F 78% 29.88 in 10.0 mi West 10.4 mph 18.4 mph N/A   Overcast
4:53 PM 33.1 °F 24.4 °F 26.1 °F 75% 29.90 in 10.0 mi West 11.5 mph 17.3 mph N/A   Overcast
5:53 PM 33.8 °F 24.8 °F 26.6 °F 75% 29.88 in 10.0 mi WSW 12.7 mph - N/A   Overcast
6:53 PM 33.1 °F 24.4 °F 24.1 °F 70% 29.93 in 10.0 mi West 11.5 mph - N/A   Overcast
7:10 PM 32.0 °F 24.2 °F 24.8 °F 75% 29.90 in 10.0 mi WNW 9.2 mph - N/A   Scattered Clouds
7:53 PM 30.9 °F 26.2 °F 24.1 °F 76% 29.95 in 10.0 mi West 4.6 mph - N/A   Clear
8:53 PM 30.0 °F 25.2 °F 23.0 °F 75% 29.97 in 10.0 mi West 4.6 mph - N/A   Clear
9:53 PM 30.0 °F 22.4 °F 23.0 °F 75% 29.98 in 10.0 mi West 8.1 mph - N/A   Clear
10:53 PM 28.9 °F 21.9 °F 23.0 °F 78% 30.00 in 10.0 mi WNW 6.9 mph - N/A   Clear
11:53 PM 27.0 °F 21.6 °F 21.9 °F 81% 30.02 in 10.0 mi West 4.6 mph - N/A   Clear